Location: Newark
(33.6333°S, 78.8500°W)
Time: 10:58:15
(UTC+00:00)

Courier 1B - Pass Details

Date: 28 September 2019
Orbit: 962 x 1209 km, 28.3° (Epoch: 19 October)

Event Time Altitude Azimuth Distance (km) Brightness Sun altitude
Rises 21:49:51 0° 278° (W) 4,116 12.6 17.0°
Reaches altitude 10° 21:52:46 10° 282° (WNW) 3,147 13.0 16.4°
Maximum altitude 22:00:28 59° 359° (N) 1,345 8.6 14.8°
Drops below altitude 10° 22:07:54 10° 76° (ENE) 3,035 9.6 13.3°
Sets 22:10:40 0° 79° (E) 3,961 10.1 12.7°
